owner,sensor,date,latitude,longitude,vertical_datum,sea_water_temperature,qcFlag 
SCCF RECON,ioos:station:SCCF:53:1,2008-01-01T05:00:00Z,26.6493,-81.8810,2.11,24.4,2 
SCCF RECON,ioos:station:SCCF:53:1,2008-01-01T06:00:00Z,26.6493,-81.8810,2.11,24.36,2 
SCCF RECON,ioos:station:SCCF:53:1,2008-01-01T07:00:00Z,26.6493,-81.8810,2.11,24.34,2 
SCCF RECON,ioos:station:SCCF:53:1,2008-01-01T08:00:00Z,26.6493,-81.8810,2.11,24.28,2 
SCCF RECON,ioos:station:SCCF:53:1,2008-01-01T09:00:00Z,26.6493,-81.8810,2.11,24.31,2 
SCCF RECON,ioos:station:SCCF:53:1,2008-01-01T10:00:00Z,26.6493,-81.8810,2.11,24.24,2 
SCCF RECON,ioos:station:SCCF:53:1,2008-01-01T11:00:00Z,26.6493,-81.8810,2.11,24.18,2 
SCCF RECON,ioos:station:SCCF:53:1,2008-01-01T12:00:00Z,26.6493,-81.8810,2.11,24.34,2 
SCCF RECON,ioos:station:SCCF:53:1,2008-01-01T13:00:00Z,26.6493,-81.8810,2.11,24.22,2 
SCCF RECON,ioos:station:SCCF:53:1,2008-01-01T14:00:00Z,26.6493,-81.8810,2.11,24.12,2 
SCCF RECON,ioos:station:SCCF:53:1,2008-01-01T15:00:00Z,26.6493,-81.8810,2.11,24.12,2 
SCCF RECON,ioos:station:SCCF:53:1,2008-01-01T16:00:00Z,26.6493,-81.8810,2.11,23.96,2 
SCCF RECON,ioos:station:SCCF:53:1,2008-01-01T17:00:00Z,26.6493,-81.8810,2.11,24.04,2 
SCCF RECON,ioos:station:SCCF:53:1,2008-01-01T18:00:00Z,26.6493,-81.8810,2.11,23.92,2 
SCCF RECON,ioos:station:SCCF:53:1,2008-01-01T19:00:00Z,26.6493,-81.8810,2.11,23.99,2 
SCCF RECON,ioos:station:SCCF:53:1,2008-01-01T20:00:00Z,26.6493,-81.8810,2.11,24.05,2 
SCCF RECON,ioos:station:SCCF:53:1,2008-01-01T21:00:00Z,26.6493,-81.8810,2.11,24.06,2 
SCCF RECON,ioos:station:SCCF:53:1,2008-01-01T22:00:00Z,26.6493,-81.8810,2.11,23.98,2 
SCCF RECON,ioos:station:SCCF:53:1,2008-01-01T23:00:00Z,26.6493,-81.8810,2.11,23.89,2 
SCCF RECON,ioos:station:SCCF:53:1,2008-01-02T00:00:00Z,26.6493,-81.8810,2.11,23.78,2 
SCCF RECON,ioos:station:SCCF:53:1,2008-01-02T01:00:00Z,26.6493,-81.8810,2.11,23.57,2 
SCCF RECON,ioos:station:SCCF:53:1,2008-01-02T02:00:00Z,26.6493,-81.8810,2.11,23.42,2 
SCCF RECON,ioos:station:SCCF:53:1,2008-01-02T03:00:00Z,26.6493,-81.8810,2.11,23.3,2 
SCCF RECON,ioos:station:SCCF:53:1,2008-01-02T04:00:00Z,26.6493,-81.8810,2.11,23.18,2 
SCCF RECON,ioos:station:SCCF:53:1,2008-01-02T05:00:00Z,26.6493,-81.8810,2.11,22.86,2 
SCCF RECON,ioos:station:SCCF:53:1,2008-01-02T06:00:00Z,26.6493,-81.8810,2.11,22.71,2 
SCCF RECON,ioos:station:SCCF:53:1,2008-01-02T07:00:00Z,26.6493,-81.8810,2.11,22.19,2 
SCCF RECON,ioos:station:SCCF:53:1,2008-01-02T08:00:00Z,26.6493,-81.8810,2.11,22.08,2 
SCCF RECON,ioos:station:SCCF:53:1,2008-01-02T09:00:00Z,26.6493,-81.8810,2.11,21.61,2 
SCCF RECON,ioos:station:SCCF:53:1,2008-01-02T10:00:00Z,26.6493,-81.8810,2.11,21.4,2 
SCCF RECON,ioos:station:SCCF:53:1,2008-01-02T11:00:00Z,26.6493,-81.8810,2.11,21.09,2 
SCCF RECON,ioos:station:SCCF:53:1,2008-01-02T12:00:00Z,26.6493,-81.8810,2.11,20.5,2 
SCCF RECON,ioos:station:SCCF:53:1,2008-01-02T13:00:00Z,26.6493,-81.8810,2.11,20.21,2 
SCCF RECON,ioos:station:SCCF:53:1,2008-01-02T14:00:00Z,26.6493,-81.8810,2.11,19.97,2 
SCCF RECON,ioos:station:SCCF:53:1,2008-01-02T15:00:00Z,26.6493,-81.8810,2.11,19.57,2 
SCCF RECON,ioos:station:SCCF:53:1,2008-01-02T16:00:00Z,26.6493,-81.8810,2.11,19.72,2 
SCCF RECON,ioos:station:SCCF:53:1,2008-01-02T17:00:00Z,26.6493,-81.8810,2.11,19.85,2 
SCCF RECON,ioos:station:SCCF:53:1,2008-01-02T18:00:00Z,26.6493,-81.8810,2.11,19.7,2 
SCCF RECON,ioos:station:SCCF:53:1,2008-01-02T19:00:00Z,26.6493,-81.8810,2.11,19.7,2 
SCCF RECON,ioos:station:SCCF:53:1,2008-01-02T20:00:00Z,26.6493,-81.8810,2.11,19.65,2 
SCCF RECON,ioos:station:SCCF:53:1,2008-01-02T21:00:00Z,26.6493,-81.8810,2.11,19.71,2 
SCCF RECON,ioos:station:SCCF:53:1,2008-01-02T22:00:00Z,26.6493,-81.8810,2.11,19.63,2 
SCCF RECON,ioos:station:SCCF:53:1,2008-01-02T23:00:00Z,26.6493,-81.8810,2.11,19.43,2 
SCCF RECON,ioos:station:SCCF:53:1,2008-01-03T00:00:00Z,26.6493,-81.8810,2.11,19.16,2 
SCCF RECON,ioos:station:SCCF:53:1,2008-01-03T01:00:00Z,26.6493,-81.8810,2.11,18.97,2 
SCCF RECON,ioos:station:SCCF:53:1,2008-01-03T02:00:00Z,26.6493,-81.8810,2.11,18.63,2 
SCCF RECON,ioos:station:SCCF:53:1,2008-01-03T03:00:00Z,26.6493,-81.8810,2.11,18.42,2 
SCCF RECON,ioos:station:SCCF:53:1,2008-01-03T04:00:00Z,26.6493,-81.8810,2.11,18.16,2 
SCCF RECON,ioos:station:SCCF:53:1,2008-01-03T05:00:00Z,26.6493,-81.8810,2.11,17.9,2 
SCCF RECON,ioos:station:SCCF:53:1,2008-01-03T06:00:00Z,26.6493,-81.8810,2.11,17.44,2 
SCCF RECON,ioos:station:SCCF:53:1,2008-01-03T07:00:00Z,26.6493,-81.8810,2.11,16.96,2 
SCCF RECON,ioos:station:SCCF:53:1,2008-01-03T08:00:00Z,26.6493,-81.8810,2.11,16.62,2 
SCCF RECON,ioos:station:SCCF:53:1,2008-01-03T09:00:00Z,26.6493,-81.8810,2.11,15.81,2 
SCCF RECON,ioos:station:SCCF:53:1,2008-01-03T10:00:00Z,26.6493,-81.8810,2.11,15.69,2 
SCCF RECON,ioos:station:SCCF:53:1,2008-01-03T11:00:00Z,26.6493,-81.8810,2.11,15.36,2 
SCCF RECON,ioos:station:SCCF:53:1,2008-01-03T12:00:00Z,26.6493,-81.8810,2.11,14.79,2 
SCCF RECON,ioos:station:SCCF:53:1,2008-01-03T13:00:00Z,26.6493,-81.8810,2.11,14.76,2 
SCCF RECON,ioos:station:SCCF:53:1,2008-01-03T14:00:00Z,26.6493,-81.8810,2.11,14.6,2 
SCCF RECON,ioos:station:SCCF:53:1,2008-01-03T15:00:00Z,26.6493,-81.8810,2.11,14.69,2 
SCCF RECON,ioos:station:SCCF:53:1,2008-01-03T16:00:00Z,26.6493,-81.8810,2.11,14.43,2 
SCCF RECON,ioos:station:SCCF:53:1,2008-01-03T17:00:00Z,26.6493,-81.8810,2.11,14.64,2 
SCCF RECON,ioos:station:SCCF:53:1,2008-01-03T18:00:00Z,26.6493,-81.8810,2.11,14.81,2 
SCCF RECON,ioos:station:SCCF:53:1,2008-01-03T19:00:00Z,26.6493,-81.8810,2.11,14.62,2 
SCCF RECON,ioos:station:SCCF:53:1,2008-01-03T20:00:00Z,26.6493,-81.8810,2.11,14.95,2 
SCCF RECON,ioos:station:SCCF:53:1,2008-01-03T21:00:00Z,26.6493,-81.8810,2.11,15.01,2 
SCCF RECON,ioos:station:SCCF:53:1,2008-01-03T22:00:00Z,26.6493,-81.8810,2.11,14.94,2 
SCCF RECON,ioos:station:SCCF:53:1,2008-01-03T23:00:00Z,26.6493,-81.8810,2.11,14.74,2 
SCCF RECON,ioos:station:SCCF:53:1,2008-01-04T00:00:00Z,26.6493,-81.8810,2.11,14.91,2 
SCCF RECON,ioos:station:SCCF:53:1,2008-01-04T01:00:00Z,26.6493,-81.8810,2.11,14.68,2 
SCCF RECON,ioos:station:SCCF:53:1,2008-01-04T02:00:00Z,26.6493,-81.8810,2.11,14.7,2 
SCCF RECON,ioos:station:SCCF:53:1,2008-01-04T03:00:00Z,26.6493,-81.8810,2.11,14.67,2 
SCCF RECON,ioos:station:SCCF:53:1,2008-01-04T04:00:00Z,26.6493,-81.8810,2.11,14.55,2 
SCCF RECON,ioos:station:SCCF:53:1,2008-01-04T05:00:00Z,26.6493,-81.8810,2.11,14.31,2 
SCCF RECON,ioos:station:SCCF:53:1,2008-01-04T06:00:00Z,26.6493,-81.8810,2.11,14.19,2 
SCCF RECON,ioos:station:SCCF:53:1,2008-01-04T07:00:00Z,26.6493,-81.8810,2.11,14.12,2 
SCCF RECON,ioos:station:SCCF:53:1,2008-01-04T08:00:00Z,26.6493,-81.8810,2.11,13.8,2 
SCCF RECON,ioos:station:SCCF:53:1,2008-01-04T09:00:00Z,26.6493,-81.8810,2.11,13.44,2 
SCCF RECON,ioos:station:SCCF:53:1,2008-01-04T11:00:00Z,26.6493,-81.8810,2.11,13.29,2 
SCCF RECON,ioos:station:SCCF:53:1,2008-01-04T12:00:00Z,26.6493,-81.8810,2.11,13.0,2 
SCCF RECON,ioos:station:SCCF:53:1,2008-01-04T13:00:00Z,26.6493,-81.8810,2.11,12.81,2 
SCCF RECON,ioos:station:SCCF:53:1,2008-01-04T14:00:00Z,26.6493,-81.8810,2.11,12.71,2 
SCCF RECON,ioos:station:SCCF:53:1,2008-01-04T15:00:00Z,26.6493,-81.8810,2.11,13.09,2 
SCCF RECON,ioos:station:SCCF:53:1,2008-01-04T16:00:00Z,26.6493,-81.8810,2.11,13.22,2 
SCCF RECON,ioos:station:SCCF:53:1,2008-01-04T17:00:00Z,26.6493,-81.8810,2.11,13.47,2 
SCCF RECON,ioos:station:SCCF:53:1,2008-01-04T18:00:00Z,26.6493,-81.8810,2.11,13.61,2 
SCCF RECON,ioos:station:SCCF:53:1,2008-01-04T19:00:00Z,26.6493,-81.8810,2.11,13.74,2 
SCCF RECON,ioos:station:SCCF:53:1,2008-01-04T20:00:00Z,26.6493,-81.8810,2.11,13.88,2 
SCCF RECON,ioos:station:SCCF:53:1,2008-01-04T21:00:00Z,26.6493,-81.8810,2.11,13.79,2 
SCCF RECON,ioos:station:SCCF:53:1,2008-01-04T22:00:00Z,26.6493,-81.8810,2.11,13.72,2 
SCCF RECON,ioos:station:SCCF:53:1,2008-01-04T23:00:00Z,26.6493,-81.8810,2.11,13.68,2 
SCCF RECON,ioos:station:SCCF:53:1,2008-01-05T00:00:00Z,26.6493,-81.8810,2.11,13.71,2 
SCCF RECON,ioos:station:SCCF:53:1,2008-01-05T01:00:00Z,26.6493,-81.8810,2.11,13.77,2 
SCCF RECON,ioos:station:SCCF:53:1,2008-01-05T02:00:00Z,26.6493,-81.8810,2.11,13.8,2 
SCCF RECON,ioos:station:SCCF:53:1,2008-01-05T03:00:00Z,26.6493,-81.8810,2.11,13.83,2 
SCCF RECON,ioos:station:SCCF:53:1,2008-01-05T04:00:00Z,26.6493,-81.8810,2.11,13.72,2 
SCCF RECON,ioos:station:SCCF:53:1,2008-01-05T05:00:00Z,26.6493,-81.8810,2.11,13.61,2 
SCCF RECON,ioos:station:SCCF:53:1,2008-01-05T06:00:00Z,26.6493,-81.8810,2.11,13.6,2 
SCCF RECON,ioos:station:SCCF:53:1,2008-01-05T07:00:00Z,26.6493,-81.8810,2.11,13.56,2 
SCCF RECON,ioos:station:SCCF:53:1,2008-01-05T08:00:00Z,26.6493,-81.8810,2.11,13.57,2 
SCCF RECON,ioos:station:SCCF:53:1,2008-01-05T09:00:00Z,26.6493,-81.8810,2.11,13.58,2 
SCCF RECON,ioos:station:SCCF:53:1,2008-01-05T10:00:00Z,26.6493,-81.8810,2.11,13.55,2 
SCCF RECON,ioos:station:SCCF:53:1,2008-01-05T11:00:00Z,26.6493,-81.8810,2.11,13.48,2 
SCCF RECON,ioos:station:SCCF:53:1,2008-01-05T12:00:00Z,26.6493,-81.8810,2.11,13.43,2 
SCCF RECON,ioos:station:SCCF:53:1,2008-01-05T13:00:00Z,26.6493,-81.8810,2.11,13.4,2 
SCCF RECON,ioos:station:SCCF:53:1,2008-01-05T14:00:00Z,26.6493,-81.8810,2.11,13.43,2 
SCCF RECON,ioos:station:SCCF:53:1,2008-01-05T15:00:00Z,26.6493,-81.8810,2.11,13.42,2 
SCCF RECON,ioos:station:SCCF:53:1,2008-01-05T16:00:00Z,26.6493,-81.8810,2.11,13.53,2 
SCCF RECON,ioos:station:SCCF:53:1,2008-01-05T17:00:00Z,26.6493,-81.8810,2.11,13.57,2 
SCCF RECON,ioos:station:SCCF:53:1,2008-01-05T18:00:00Z,26.6493,-81.8810,2.11,13.92,2 
SCCF RECON,ioos:station:SCCF:53:1,2008-01-05T19:00:00Z,26.6493,-81.8810,2.11,14.03,2 
SCCF RECON,ioos:station:SCCF:53:1,2008-01-05T20:00:00Z,26.6493,-81.8810,2.11,14.29,2 
SCCF RECON,ioos:station:SCCF:53:1,2008-01-05T21:00:00Z,26.6493,-81.8810,2.11,14.35,2 
SCCF RECON,ioos:station:SCCF:53:1,2008-01-05T22:00:00Z,26.6493,-81.8810,2.11,14.43,2 
SCCF RECON,ioos:station:SCCF:53:1,2008-01-05T23:00:00Z,26.6493,-81.8810,2.11,14.58,2 
SCCF RECON,ioos:station:SCCF:53:1,2008-01-06T00:00:00Z,26.6493,-81.8810,2.11,14.59,2 
SCCF RECON,ioos:station:SCCF:53:1,2008-01-06T01:00:00Z,26.6493,-81.8810,2.11,14.47,2 
SCCF RECON,ioos:station:SCCF:53:1,2008-01-06T02:00:00Z,26.6493,-81.8810,2.11,14.62,2 
SCCF RECON,ioos:station:SCCF:53:1,2008-01-06T03:00:00Z,26.6493,-81.8810,2.11,14.63,2 
SCCF RECON,ioos:station:SCCF:53:1,2008-01-06T04:00:00Z,26.6493,-81.8810,2.11,14.63,2 
SCCF RECON,ioos:station:SCCF:53:1,2008-01-06T05:00:00Z,26.6493,-81.8810,2.11,14.79,2 
SCCF RECON,ioos:station:SCCF:53:1,2008-01-06T06:00:00Z,26.6493,-81.8810,2.11,14.67,2 
SCCF RECON,ioos:station:SCCF:53:1,2008-01-06T07:00:00Z,26.6493,-81.8810,2.11,14.61,2 
SCCF RECON,ioos:station:SCCF:53:1,2008-01-06T08:00:00Z,26.6493,-81.8810,2.11,14.83,2 
SCCF RECON,ioos:station:SCCF:53:1,2008-01-06T09:00:00Z,26.6493,-81.8810,2.11,14.89,2 
SCCF RECON,ioos:station:SCCF:53:1,2008-01-06T10:00:00Z,26.6493,-81.8810,2.11,14.76,2 
SCCF RECON,ioos:station:SCCF:53:1,2008-01-06T11:00:00Z,26.6493,-81.8810,2.11,14.68,2 
SCCF RECON,ioos:station:SCCF:53:1,2008-01-06T12:00:00Z,26.6493,-81.8810,2.11,14.69,2 
SCCF RECON,ioos:station:SCCF:53:1,2008-01-06T13:00:00Z,26.6493,-81.8810,2.11,14.74,2 
SCCF RECON,ioos:station:SCCF:53:1,2008-01-06T14:00:00Z,26.6493,-81.8810,2.11,14.76,2 
SCCF RECON,ioos:station:SCCF:53:1,2008-01-06T15:00:00Z,26.6493,-81.8810,2.11,14.78,2 
SCCF RECON,ioos:station:SCCF:53:1,2008-01-06T16:00:00Z,26.6493,-81.8810,2.11,14.86,2 
SCCF RECON,ioos:station:SCCF:53:1,2008-01-06T17:00:00Z,26.6493,-81.8810,2.11,14.96,2 
SCCF RECON,ioos:station:SCCF:53:1,2008-01-06T18:00:00Z,26.6493,-81.8810,2.11,15.06,2 
SCCF RECON,ioos:station:SCCF:53:1,2008-01-06T19:00:00Z,26.6493,-81.8810,2.11,15.19,2 
SCCF RECON,ioos:station:SCCF:53:1,2008-01-06T20:00:00Z,26.6493,-81.8810,2.11,15.39,2 
SCCF RECON,ioos:station:SCCF:53:1,2008-01-06T21:00:00Z,26.6493,-81.8810,2.11,15.38,2 
SCCF RECON,ioos:station:SCCF:53:1,2008-01-06T22:00:00Z,26.6493,-81.8810,2.11,15.18,2 
SCCF RECON,ioos:station:SCCF:53:1,2008-01-06T23:00:00Z,26.6493,-81.8810,2.11,15.24,2 
SCCF RECON,ioos:station:SCCF:53:1,2008-01-07T00:00:00Z,26.6493,-81.8810,2.11,15.34,2 
SCCF RECON,ioos:station:SCCF:53:1,2008-01-07T01:00:00Z,26.6493,-81.8810,2.11,15.37,2 
SCCF RECON,ioos:station:SCCF:53:1,2008-01-07T02:00:00Z,26.6493,-81.8810,2.11,15.3,2 
SCCF RECON,ioos:station:SCCF:53:1,2008-01-07T03:00:00Z,26.6493,-81.8810,2.11,15.25,2 
SCCF RECON,ioos:station:SCCF:53:1,2008-01-07T04:00:00Z,26.6493,-81.8810,2.11,15.41,2 
SCCF RECON,ioos:station:SCCF:53:1,2008-01-07T05:00:00Z,26.6493,-81.8810,2.11,15.62,2 
SCCF RECON,ioos:station:SCCF:53:1,2008-01-07T06:00:00Z,26.6493,-81.8810,2.11,15.62,2 
SCCF RECON,ioos:station:SCCF:53:1,2008-01-07T07:00:00Z,26.6493,-81.8810,2.11,15.41,2 
SCCF RECON,ioos:station:SCCF:53:1,2008-01-07T08:00:00Z,26.6493,-81.8810,2.11,15.65,2 
SCCF RECON,ioos:station:SCCF:53:1,2008-01-07T09:00:00Z,26.6493,-81.8810,2.11,15.79,2 
SCCF RECON,ioos:station:SCCF:53:1,2008-01-07T10:00:00Z,26.6493,-81.8810,2.11,15.72,2 
SCCF RECON,ioos:station:SCCF:53:1,2008-01-07T11:00:00Z,26.6493,-81.8810,2.11,15.7,2 
SCCF RECON,ioos:station:SCCF:53:1,2008-01-07T12:00:00Z,26.6493,-81.8810,2.11,15.7,2 
SCCF RECON,ioos:station:SCCF:53:1,2008-01-07T13:00:00Z,26.6493,-81.8810,2.11,15.66,2 
SCCF RECON,ioos:station:SCCF:53:1,2008-01-07T14:00:00Z,26.6493,-81.8810,2.11,15.65,2 
SCCF RECON,ioos:station:SCCF:53:1,2008-01-07T15:00:00Z,26.6493,-81.8810,2.11,15.71,2 
SCCF RECON,ioos:station:SCCF:53:1,2008-01-07T16:00:00Z,26.6493,-81.8810,2.11,15.73,2 
SCCF RECON,ioos:station:SCCF:53:1,2008-01-07T17:00:00Z,26.6493,-81.8810,2.11,15.75,2 
SCCF RECON,ioos:station:SCCF:53:1,2008-01-07T18:00:00Z,26.6493,-81.8810,2.11,16.02,2 
SCCF RECON,ioos:station:SCCF:53:1,2008-01-07T19:00:00Z,26.6493,-81.8810,2.11,16.36,2 
SCCF RECON,ioos:station:SCCF:53:1,2008-01-07T20:00:00Z,26.6493,-81.8810,2.11,16.47,2 
SCCF RECON,ioos:station:SCCF:53:1,2008-01-07T21:00:00Z,26.6493,-81.8810,2.11,16.47,2 
SCCF RECON,ioos:station:SCCF:53:1,2008-01-07T22:00:00Z,26.6493,-81.8810,2.11,16.28,2 
SCCF RECON,ioos:station:SCCF:53:1,2008-01-07T23:00:00Z,26.6493,-81.8810,2.11,16.21,2 
SCCF RECON,ioos:station:SCCF:53:1,2008-01-08T00:00:00Z,26.6493,-81.8810,2.11,16.2,2 
SCCF RECON,ioos:station:SCCF:53:1,2008-01-08T01:00:00Z,26.6493,-81.8810,2.11,16.09,2 
SCCF RECON,ioos:station:SCCF:53:1,2008-01-08T02:00:00Z,26.6493,-81.8810,2.11,16.16,2 
SCCF RECON,ioos:station:SCCF:53:1,2008-01-08T03:00:00Z,26.6493,-81.8810,2.11,16.21,2 
SCCF RECON,ioos:station:SCCF:53:1,2008-01-08T04:00:00Z,26.6493,-81.8810,2.11,16.53,2 
SCCF RECON,ioos:station:SCCF:53:1,2008-01-08T05:00:00Z,26.6493,-81.8810,2.11,16.77,2 
SCCF RECON,ioos:station:SCCF:53:1,2008-01-08T06:00:00Z,26.6493,-81.8810,2.11,16.48,2 
SCCF RECON,ioos:station:SCCF:53:1,2008-01-08T07:00:00Z,26.6493,-81.8810,2.11,16.64,2 
SCCF RECON,ioos:station:SCCF:53:1,2008-01-08T08:00:00Z,26.6493,-81.8810,2.11,16.58,2 
SCCF RECON,ioos:station:SCCF:53:1,2008-01-08T14:00:00Z,26.6493,-81.8810,2.11,16.67,2 
SCCF RECON,ioos:station:SCCF:53:1,2008-01-08T16:00:00Z,26.6493,-81.8810,2.11,16.76,2 
SCCF RECON,ioos:station:SCCF:53:1,2008-01-08T18:00:00Z,26.6493,-81.8810,2.11,17.11,2 
SCCF RECON,ioos:station:SCCF:53:1,2008-01-08T19:00:00Z,26.6493,-81.8810,2.11,17.58,2 
SCCF RECON,ioos:station:SCCF:53:1,2008-01-08T20:00:00Z,26.6493,-81.8810,2.11,18.8,2 
SCCF RECON,ioos:station:SCCF:53:1,2008-01-08T21:00:00Z,26.6493,-81.8810,2.11,18.87,2 
SCCF RECON,ioos:station:SCCF:53:1,2008-01-08T22:00:00Z,26.6493,-81.8810,2.11,18.2,2 
SCCF RECON,ioos:station:SCCF:53:1,2008-01-08T23:00:00Z,26.6493,-81.8810,2.11,17.67,2 
SCCF RECON,ioos:station:SCCF:53:1,2008-01-09T00:00:00Z,26.6493,-81.8810,2.11,18.09,2 
SCCF RECON,ioos:station:SCCF:53:1,2008-01-09T01:00:00Z,26.6493,-81.8810,2.11,17.9,2 
SCCF RECON,ioos:station:SCCF:53:1,2008-01-09T02:00:00Z,26.6493,-81.8810,2.11,17.95,2 
SCCF RECON,ioos:station:SCCF:53:1,2008-01-09T03:00:00Z,26.6493,-81.8810,2.11,17.74,2 
SCCF RECON,ioos:station:SCCF:53:1,2008-01-09T04:00:00Z,26.6493,-81.8810,2.11,17.36,2 
SCCF RECON,ioos:station:SCCF:53:1,2008-01-09T05:00:00Z,26.6493,-81.8810,2.11,17.67,2 
SCCF RECON,ioos:station:SCCF:53:1,2008-01-09T06:00:00Z,26.6493,-81.8810,2.11,17.58,2 
SCCF RECON,ioos:station:SCCF:53:1,2008-01-09T07:00:00Z,26.6493,-81.8810,2.11,17.5,2 
SCCF RECON,ioos:station:SCCF:53:1,2008-01-09T08:00:00Z,26.6493,-81.8810,2.11,17.82,2 
SCCF RECON,ioos:station:SCCF:53:1,2008-01-09T09:00:00Z,26.6493,-81.8810,2.11,17.65,2 
SCCF RECON,ioos:station:SCCF:53:1,2008-01-09T10:00:00Z,26.6493,-81.8810,2.11,17.85,2 
SCCF RECON,ioos:station:SCCF:53:1,2008-01-09T11:00:00Z,26.6493,-81.8810,2.11,18.06,2 
SCCF RECON,ioos:station:SCCF:53:1,2008-01-09T12:00:00Z,26.6493,-81.8810,2.11,17.76,2 
SCCF RECON,ioos:station:SCCF:53:1,2008-01-09T13:00:00Z,26.6493,-81.8810,2.11,17.71,2 
SCCF RECON,ioos:station:SCCF:53:1,2008-01-09T14:00:00Z,26.6493,-81.8810,2.11,17.74,2 
SCCF RECON,ioos:station:SCCF:53:1,2008-01-09T15:00:00Z,26.6493,-81.8810,2.11,17.79,2 
SCCF RECON,ioos:station:SCCF:53:1,2008-01-09T16:00:00Z,26.6493,-81.8810,2.11,17.74,2 
SCCF RECON,ioos:station:SCCF:53:1,2008-01-09T17:00:00Z,26.6493,-81.8810,2.11,17.77,2 
SCCF RECON,ioos:station:SCCF:53:1,2008-01-09T18:00:00Z,26.6493,-81.8810,2.11,17.87,2 
SCCF RECON,ioos:station:SCCF:53:1,2008-01-09T19:00:00Z,26.6493,-81.8810,2.11,18.11,2 
SCCF RECON,ioos:station:SCCF:53:1,2008-01-09T20:00:00Z,26.6493,-81.8810,2.11,18.53,2 
SCCF RECON,ioos:station:SCCF:53:1,2008-01-09T21:00:00Z,26.6493,-81.8810,2.11,18.76,2 
SCCF RECON,ioos:station:SCCF:53:1,2008-01-09T22:00:00Z,26.6493,-81.8810,2.11,18.7,2 
SCCF RECON,ioos:station:SCCF:53:1,2008-01-09T23:00:00Z,26.6493,-81.8810,2.11,18.72,2 
SCCF RECON,ioos:station:SCCF:53:1,2008-01-10T00:00:00Z,26.6493,-81.8810,2.11,18.91,2 
SCCF RECON,ioos:station:SCCF:53:1,2008-01-10T01:00:00Z,26.6493,-81.8810,2.11,18.8,2 
SCCF RECON,ioos:station:SCCF:53:1,2008-01-10T02:00:00Z,26.6493,-81.8810,2.11,18.5,2 
SCCF RECON,ioos:station:SCCF:53:1,2008-01-10T03:00:00Z,26.6493,-81.8810,2.11,18.38,2 
SCCF RECON,ioos:station:SCCF:53:1,2008-01-10T04:00:00Z,26.6493,-81.8810,2.11,18.44,2 
SCCF RECON,ioos:station:SCCF:53:1,2008-01-10T06:00:00Z,26.6493,-81.8810,2.11,18.47,2 
SCCF RECON,ioos:station:SCCF:53:1,2008-01-10T07:00:00Z,26.6493,-81.8810,2.11,18.59,2 
SCCF RECON,ioos:station:SCCF:53:1,2008-01-10T08:00:00Z,26.6493,-81.8810,2.11,18.57,2 
SCCF RECON,ioos:station:SCCF:53:1,2008-01-10T09:00:00Z,26.6493,-81.8810,2.11,18.55,2 
SCCF RECON,ioos:station:SCCF:53:1,2008-01-10T10:00:00Z,26.6493,-81.8810,2.11,18.42,2 
SCCF RECON,ioos:station:SCCF:53:1,2008-01-10T12:00:00Z,26.6493,-81.8810,2.11,18.65,2 
SCCF RECON,ioos:station:SCCF:53:1,2008-01-10T13:00:00Z,26.6493,-81.8810,2.11,18.62,2 
SCCF RECON,ioos:station:SCCF:53:1,2008-01-10T15:00:00Z,26.6493,-81.8810,2.11,18.61,2 
SCCF RECON,ioos:station:SCCF:53:1,2008-01-10T16:00:00Z,26.6493,-81.8810,2.11,18.63,2 
SCCF RECON,ioos:station:SCCF:53:1,2008-01-10T17:00:00Z,26.6493,-81.8810,2.11,18.71,2 
SCCF RECON,ioos:station:SCCF:53:1,2008-01-10T18:00:00Z,26.6493,-81.8810,2.11,18.74,2 
SCCF RECON,ioos:station:SCCF:53:1,2008-01-10T19:00:00Z,26.6493,-81.8810,2.11,18.72,2 
SCCF RECON,ioos:station:SCCF:53:1,2008-01-10T20:00:00Z,26.6493,-81.8810,2.11,19.32,2 
SCCF RECON,ioos:station:SCCF:53:1,2008-01-10T21:00:00Z,26.6493,-81.8810,2.11,20.12,2 
SCCF RECON,ioos:station:SCCF:53:1,2008-01-10T22:00:00Z,26.6493,-81.8810,2.11,20.47,2 
SCCF RECON,ioos:station:SCCF:53:1,2008-01-10T23:00:00Z,26.6493,-81.8810,2.11,20.15,2 
SCCF RECON,ioos:station:SCCF:53:1,2008-01-11T00:00:00Z,26.6493,-81.8810,2.11,20.24,2 
SCCF RECON,ioos:station:SCCF:53:1,2008-01-11T03:00:00Z,26.6493,-81.8810,2.11,20.04,2 
SCCF RECON,ioos:station:SCCF:53:1,2008-01-11T04:00:00Z,26.6493,-81.8810,2.11,20.11,2 
SCCF RECON,ioos:station:SCCF:53:1,2008-01-11T05:00:00Z,26.6493,-81.8810,2.11,20.16,2 
SCCF RECON,ioos:station:SCCF:53:1,2008-01-11T06:00:00Z,26.6493,-81.8810,2.11,20.1,2 
SCCF RECON,ioos:station:SCCF:53:1,2008-01-11T07:00:00Z,26.6493,-81.8810,2.11,20.0,2 
SCCF RECON,ioos:station:SCCF:53:1,2008-01-11T08:00:00Z,26.6493,-81.8810,2.11,19.88,2 
SCCF RECON,ioos:station:SCCF:53:1,2008-01-11T09:00:00Z,26.6493,-81.8810,2.11,19.86,2 
SCCF RECON,ioos:station:SCCF:53:1,2008-01-11T10:00:00Z,26.6493,-81.8810,2.11,19.75,2 
SCCF RECON,ioos:station:SCCF:53:1,2008-01-11T11:00:00Z,26.6493,-81.8810,2.11,19.82,2 
SCCF RECON,ioos:station:SCCF:53:1,2008-01-11T12:00:00Z,26.6493,-81.8810,2.11,20.0,2 
SCCF RECON,ioos:station:SCCF:53:1,2008-01-11T13:00:00Z,26.6493,-81.8810,2.11,20.03,2 
SCCF RECON,ioos:station:SCCF:53:1,2008-01-11T14:00:00Z,26.6493,-81.8810,2.11,19.99,2 
SCCF RECON,ioos:station:SCCF:53:1,2008-01-11T15:00:00Z,26.6493,-81.8810,2.11,20.04,2 
SCCF RECON,ioos:station:SCCF:53:1,2008-01-11T16:00:00Z,26.6493,-81.8810,2.11,20.07,2 
SCCF RECON,ioos:station:SCCF:53:1,2008-01-11T17:00:00Z,26.6493,-81.8810,2.11,20.13,2 
SCCF RECON,ioos:station:SCCF:53:1,2008-01-11T18:00:00Z,26.6493,-81.8810,2.11,20.14,2 
SCCF RECON,ioos:station:SCCF:53:1,2008-01-11T19:00:00Z,26.6493,-81.8810,2.11,20.44,2 
SCCF RECON,ioos:station:SCCF:53:1,2008-01-11T20:00:00Z,26.6493,-81.8810,2.11,20.77,2 
SCCF RECON,ioos:station:SCCF:53:1,2008-01-11T21:00:00Z,26.6493,-81.8810,2.11,20.81,2 
SCCF RECON,ioos:station:SCCF:53:1,2008-01-11T22:00:00Z,26.6493,-81.8810,2.11,20.8,2 
SCCF RECON,ioos:station:SCCF:53:1,2008-01-11T23:00:00Z,26.6493,-81.8810,2.11,20.77,2 
SCCF RECON,ioos:station:SCCF:53:1,2008-01-12T00:00:00Z,26.6493,-81.8810,2.11,20.84,2 
SCCF RECON,ioos:station:SCCF:53:1,2008-01-12T01:00:00Z,26.6493,-81.8810,2.11,21.16,2 
SCCF RECON,ioos:station:SCCF:53:1,2008-01-12T02:00:00Z,26.6493,-81.8810,2.11,20.87,2 
SCCF RECON,ioos:station:SCCF:53:1,2008-01-12T03:00:00Z,26.6493,-81.8810,2.11,20.85,2 
SCCF RECON,ioos:station:SCCF:53:1,2008-01-12T04:00:00Z,26.6493,-81.8810,2.11,20.82,2 
SCCF RECON,ioos:station:SCCF:53:1,2008-01-12T05:00:00Z,26.6493,-81.8810,2.11,20.79,2 
SCCF RECON,ioos:station:SCCF:53:1,2008-01-12T06:00:00Z,26.6493,-81.8810,2.11,20.81,2 
SCCF RECON,ioos:station:SCCF:53:1,2008-01-12T07:00:00Z,26.6493,-81.8810,2.11,20.92,2 
SCCF RECON,ioos:station:SCCF:53:1,2008-01-12T08:00:00Z,26.6493,-81.8810,2.11,20.89,2 
SCCF RECON,ioos:station:SCCF:53:1,2008-01-12T09:00:00Z,26.6493,-81.8810,2.11,20.83,2 
SCCF RECON,ioos:station:SCCF:53:1,2008-01-12T10:00:00Z,26.6493,-81.8810,2.11,20.81,2 
SCCF RECON,ioos:station:SCCF:53:1,2008-01-12T11:00:00Z,26.6493,-81.8810,2.11,20.75,2 
SCCF RECON,ioos:station:SCCF:53:1,2008-01-12T12:00:00Z,26.6493,-81.8810,2.11,20.82,2 
SCCF RECON,ioos:station:SCCF:53:1,2008-01-12T13:00:00Z,26.6493,-81.8810,2.11,20.68,2 
SCCF RECON,ioos:station:SCCF:53:1,2008-01-12T14:00:00Z,26.6493,-81.8810,2.11,20.7,2 
SCCF RECON,ioos:station:SCCF:53:1,2008-01-12T15:00:00Z,26.6493,-81.8810,2.11,20.61,2 
SCCF RECON,ioos:station:SCCF:53:1,2008-01-12T16:00:00Z,26.6493,-81.8810,2.11,20.43,2 
SCCF RECON,ioos:station:SCCF:53:1,2008-01-12T17:00:00Z,26.6493,-81.8810,2.11,20.44,2 
SCCF RECON,ioos:station:SCCF:53:1,2008-01-12T18:00:00Z,26.6493,-81.8810,2.11,20.51,2 
SCCF RECON,ioos:station:SCCF:53:1,2008-01-12T19:00:00Z,26.6493,-81.8810,2.11,20.77,2 
SCCF RECON,ioos:station:SCCF:53:1,2008-01-12T20:00:00Z,26.6493,-81.8810,2.11,21.22,2 
SCCF RECON,ioos:station:SCCF:53:1,2008-01-12T21:00:00Z,26.6493,-81.8810,2.11,21.26,2 
SCCF RECON,ioos:station:SCCF:53:1,2008-01-12T22:00:00Z,26.6493,-81.8810,2.11,21.36,2 
SCCF RECON,ioos:station:SCCF:53:1,2008-01-12T23:00:00Z,26.6493,-81.8810,2.11,21.47,2 
SCCF RECON,ioos:station:SCCF:53:1,2008-01-13T00:00:00Z,26.6493,-81.8810,2.11,21.5,2 
SCCF RECON,ioos:station:SCCF:53:1,2008-01-13T01:00:00Z,26.6493,-81.8810,2.11,21.54,2 
SCCF RECON,ioos:station:SCCF:53:1,2008-01-13T02:00:00Z,26.6493,-81.8810,2.11,21.53,2 
SCCF RECON,ioos:station:SCCF:53:1,2008-01-13T03:00:00Z,26.6493,-81.8810,2.11,21.41,2 
SCCF RECON,ioos:station:SCCF:53:1,2008-01-13T04:00:00Z,26.6493,-81.8810,2.11,21.35,2 
SCCF RECON,ioos:station:SCCF:53:1,2008-01-13T05:00:00Z,26.6493,-81.8810,2.11,21.26,2 
SCCF RECON,ioos:station:SCCF:53:1,2008-01-13T06:00:00Z,26.6493,-81.8810,2.11,21.28,2 
SCCF RECON,ioos:station:SCCF:53:1,2008-01-13T07:00:00Z,26.6493,-81.8810,2.11,21.36,2 